THOR ABLESTAR DEB, 325

Orbit data source: Space-Track

THOR ABLESTAR DEB, 325 is space debris in LEO originally from a launch on Thu, 29 Jun 1961 UTC launched from the Air Force Eastern Test Range (AFETR). Debris objects in space refer to the collection of defunct objects orbiting the Earth. Examples of debris include non-operational satellites, rocket bodies, and fragments generated from explosions, collisions, or faulty payload assembly.

Loading next visibility...
Identifier
325, 1961-015DB
Orbit
LEO
Country
Flag of USUS
Related business
Manufacturer
Unknown
Mission
Spacecraft
Bus & Motor
Unknown
Mass
Unknown
Launch date (UTC)
1961-06-29 (65 years ago)
Launch vehicle
Unknown
Launch site
Air Force Eastern Test Range (AFETR)
Object type
Payload
Rocket body
Debris
Shape & HBR
Unknown shape, 0.1 m
Radar Cross Section
Small (<0.1 m²)

Expand to show TLE details & history
Last TLE update: 15 hours ago

TLE from 15 hours ago
0 THOR ABLESTAR DEB
1 00325U 61015DB  26072.21122894  .00001066  00000-0  50289-3 0  9999
2 00325  66.9164 349.7022 0049669 104.0165 256.6461 14.22982869319501
Epoch: 2026-03-13T05:04Z
TLE epoch observation values (Epoch: 2026-03-13T05:04:10.180Z)
Latitude
0.00002°
Longitude
102.80977°
Altitude
825.82 km
Speed
7.436 km/s
True Right ascension
23h 18m 48s
True Declination
0° 00' 00"
Sunlit
Object was in daylight at epoch
Visualization orbit readout
Latitude
Unknown
Longitude
Unknown
Altitude
Unknown
Speed
Unknown
Apparent Right ascension
Unknown
Apparent Declination
Unknown
Sunlit
N/A
Visualization observer readout
Local Sidereal Time
00:31:00
Azimuth
Unknown
Elevation
Unknown
Doppler factor
Unknown
Orbital elements
Apogee altitude
849.359 km
Perigee altitude
777.917 km
Semi-major axis
7,191.775 km
Eccentricity
0.00497
Inclination
66.9164°
RAAN
349.7022°
Arg. of periapsis
104.0165°
True anomaly
256.09313°
Mean anomaly
256.6461°
Eccentric anomaly
256.36953°
Mean motion
3.55868 °/min
Orbital period
101.16 mins
BSTAR
0.00050289
Loading maneuver chart data...
Computing Atmospheric mass density...

Documentation

Showing up to 5 results
|